Regional Weather Roundup
Issued by NWS

Home | Current Version | Previous Version | Graphics & Text | Print | Product List | Glossary On
Versions: 1 2 3 4 5 6 7 8 9 10 11 12 13 14 15 16 17 18 19 20 21 22 23 24 25 26 27 28 29 30 31 32 33 34 35 36 37 38 39 40 41 42 43 44 45 46 47 48 49 50
921
ASUS43 KFSD 172202
RWRSD

WEATHER ROUNDUP FOR SOUTH DAKOTA
NATIONAL WEATHER SERVICE SIOUX FALLS SD
500 PM CDT THU AUG 17 2017

NOTE: "FAIR" INDICATES FEW OR NO CLOUDS BELOW 12,000 FEET WITH NO
SIGNIFICANT WEATHER AND/OR OBSTRUCTIONS TO VISIBILITY.


SDZ001>005-009-010-012>017-172300-
NORTHWEST AND NORTH CENTRAL SOUTH DAKOTA

CITY           SKY/WX    TMP DP  RH WIND       PRES   REMARKS
BUFFALO          N/A     80  43  26 W9        29.88S
FAITH            N/A     90  38  16 NW23G35   29.86S
MOBRIDGE       MOSUNNY   84  57  39 SE8       29.83F
$$

SDZ012>016-024>037-041>051-057-063-072>074-172300-
SOUTHWEST AND SOUTH CENTRAL SOUTH DAKOTA

CITY           SKY/WX    TMP DP  RH WIND       PRES   REMARKS
RAPID CTY ARPT CLOUDY    88  43  20 N13G24    29.92S
PIERRE         SUNNY     87  56  34 SE17      29.81F
CUSTER         CLOUDY    78  41  26 NE9       30.06S
ELLSWORTH AFB  TSTM      79  57  47 W23G36    29.91
PHILIP         CLOUDY    94  39  14 W15       29.79F
PINE RIDGE     SUNNY     91  45  20 W7        29.89F
SPEARFISH      FAIR      79  41  25 N23G32    30.02R
WINNER         FAIR      89  61  38 S14       29.86F
$$

SDZ004>011-016>023-039-040-172300-
NORTHEAST SOUTH DAKOTA

CITY           SKY/WX    TMP DP  RH WIND       PRES   REMARKS
ABERDEEN       SUNNY     80  56  43 E6        29.87S
WATERTOWN      SUNNY     76  55  48 N10       29.88F
BROOKINGS      SUNNY     76  59  55 NW10      29.90S
SISSETON         N/A     78  61  55 N9        29.85S
$$

SDZ017-020-022-023-036>040-048>070-172300-
SOUTHEAST SOUTH DAKOTA

CITY           SKY/WX    TMP DP  RH WIND       PRES   REMARKS
SIOUX FALLS    SUNNY     80  59  48 NW13      29.89S
HURON          SUNNY     80  56  43 CALM      29.87F
CHAMBERLAIN    SUNNY     86  62  43 SE9       29.86F
MITCHELL       SUNNY     82  58  43 CALM      29.89S
YANKTON        SUNNY     81  58  45 SW8       29.91S
$$

ABBREVIATIONS USED IN REMARKS
   TC - TEMPERATURE IN CELSIUS
  WCI - WIND CHILL INDEX
   HX - HEAT INDEX
  VSB - VISIBILITY





USA.gov is the U.S. government's official web portal to all federal, state and local government web resources and services.